Vorticity
nan nan nan nan nan nan nan nan nan nan nan nan nan nan nan nan nan nan nan nan nan nan nan nan nan nan nan nan nan nan nan nan nan nan nan nan nan nan nan nan nan nan nan nan nan nan nan nan nan nan nan nan nan nan nan nan nan nan nan nan nan nan nan nan nan nan nan nan nan nan nan nan nan nan nan nan nan nan nan nan nan nan nan nan nan nan
nan 8 7 8 10 10 7 7 10 11 10 9 9 8 8 8 7 6 5 6 7 8 7 7 7 7 7 5 4 7 10 10 10 10 10 12 12 12 11 10 9 9 9 9 10 12 13 12 11 11 10 9 8 8 8 7 8 8 8 8 9 9 10 10 10 11 11 12 12 12 11 11 11 10 8 8 7 7 7 7 7 7 8 9 9 nan
nan 7 7 7 9 10 8 6 8 9 10 10 9 9 9 9 9 8 7 7 7 8 9 9 9 9 9 7 5 8 10 10 10 9 10 11 11 11 10 10 10 10 11 12 13 13 12 11 10 9 8 8 8 8 8 9 9 9 9 10 10 10 11 11 11 12 12 12 12 12 11 10 10 8 7 7 7 7 7 7 7 7 7 8 8 nan
nan 9 8 8 8 8 8 8 8 9 9 9 9 9 10 10 10 9 9 9 9 9 9 9 10 11 11 8 6 6 7 9 8 8 9 9 9 9 10 10 11 12 12 12 12 11 10 8 7 7 7 7 7 7 8 8 9 9 10 11 11 12 12 13 13 14 14 13 12 11 11 10 9 8 7 7 7 7 7 7 7 7 7 8 8 nan
nan 9 9 9 8 7 7 8 9 9 9 9 9 9 10 11 10 9 9 10 10 10 9 9 10 11 11 9 6 4 5 7 7 7 8 9 9 9 10 11 12 12 12 11 10 9 7 6 6 6 6 6 6 7 7 7 8 8 9 9 10 12 13 13 14 14 14 13 12 11 10 9 8 8 7 7 7 7 7 7 7 7 8 8 8 nan
nan 9 9 9 9 8 8 8 9 10 9 9 9 9 10 10 10 10 10 10 10 10 10 10 10 10 10 9 7 5 6 6 7 7 8 8 9 9 10 11 11 11 10 8 7 6 6 5 5 5 6 6 6 6 7 7 7 7 7 8 9 9 10 11 11 11 11 11 10 10 9 9 8 8 8 7 7 7 7 7 8 8 8 8 9 nan
nan 9 9 9 9 9 8 8 9 10 10 9 9 9 9 9 10 10 10 10 10 10 10 10 10 10 10 9 7 6 7 8 8 8 8 8 9 9 9 9 9 8 7 6 5 5 5 5 5 5 6 6 7 7 7 8 8 8 7 7 7 8 8 8 9 9 9 9 8 8 8 8 7 7 7 7 7 7 7 8 8 8 9 9 9 nan
nan 10 10 9 9 9 8 8 8 9 10 10 10 10 9 9 9 9 8 9 9 10 10 10 10 9 8 7 7 7 9 10 11 10 10 10 9 8 8 7 6 6 5 5 5 5 5 5 5 5 6 7 7 8 8 9 9 9 8 8 8 7 8 8 8 8 7 7 7 7 7 7 7 6 6 6 7 7 8 8 8 9 9 9 10 nan
nan 9 9 9 9 9 9 8 8 9 9 9 10 10 11 11 10 9 7 7 7 9 10 11 10 9 8 7 8 8 9 9 10 11 12 13 12 10 9 7 5 4 4 5 5 4 5 5 5 5 6 7 8 8 9 10 9 9 9 9 9 8 8 8 8 8 7 7 7 7 6 6 6 6 5 6 6 7 8 9 9 9 10 10 10 nan
nan 9 8 8 9 10 10 9 9 9 8 8 9 9 11 11 12 11 9 7 7 8 9 9 10 10 8 8 9 9 10 9 8 8 11 11 10 11 11 9 6 5 4 5 5 5 5 5 5 5 7 8 9 9 10 10 10 10 10 9 9 9 9 9 8 8 8 7 7 6 6 5 5 5 5 6 7 8 9 10 10 10 10 10 10 nan
nan 8 8 8 8 9 9 9 9 9 9 9 9 8 9 10 11 11 10 9 8 8 8 8 9 9 9 9 9 9 11 11 10 8 6 5 5 7 8 8 7 6 6 6 6 5 5 5 5 6 8 9 10 11 12 11 11 10 10 10 9 9 9 9 9 8 8 8 7 7 6 6 6 6 6 7 8 9 10 10 11 10 10 10 9 nan
nan 8 9 9 9 9 9 9 9 9 11 11 10 8 6 7 9 10 10 9 8 8 8 9 9 9 9 9 9 9 10 11 10 9 6 5 5 5 6 7 8 7 8 9 9 8 6 6 7 8 10 11 12 13 13 12 11 11 10 10 10 10 10 10 9 9 9 9 9 8 8 8 8 8 8 9 10 10 11 11 11 11 10 10 9 nan
nan 9 9 9 9 9 10 10 9 9 10 11 11 9 7 7 8 9 9 8 8 8 8 8 9 10 10 9 9 9 10 10 10 10 9 8 7 7 8 8 9 9 10 10 11 10 8 9 10 11 12 13 13 14 13 12 11 11 11 10 10 10 10 10 11 11 11 11 11 10 10 10 10 10 11 11 11 11 11 11 11 11 10 10 10 nan
nan 9 9 9 9 9 9 10 10 10 10 10 10 9 8 8 9 10 9 8 7 7 8 8 10 11 10 8 9 9 10 11 11 10 10 9 8 8 9 9 9 9 9 10 10 9 9 12 14 14 14 14 14 15 15 13 12 11 11 11 11 11 11 12 12 12 12 12 12 12 12 12 12 12 12 12 12 11 11 11 10 10 9 9 9 nan
nan 10 10 9 9 9 9 9 10 9 9 9 9 9 8 8 8 9 9 8 8 8 9 10 12 12 9 8 8 9 10 11 11 10 10 9 9 9 9 9 9 9 9 10 10 9 11 13 13 13 13 13 12 12 13 13 13 12 12 12 12 12 12 12 12 13 13 13 13 13 13 13 13 12 12 12 12 11 10 10 9 9 8 8 8 nan
nan 10 10 9 9 8 9 9 9 9 8 8 8 9 9 9 8 9 9 9 9 9 10 12 13 15 11 8 7 8 9 11 10 9 9 10 10 9 10 10 9 10 10 11 11 11 12 12 12 12 10 9 8 8 9 12 12 11 11 11 11 11 11 11 11 12 12 12 13 13 13 13 13 12 12 12 11 11 10 9 9 8 8 7 7 nan
nan 10 9 9 9 8 8 8 8 9 8 7 7 8 10 10 10 10 10 10 11 10 10 11 12 13 11 8 6 6 8 9 10 9 10 10 10 10 10 10 10 10 11 11 11 11 11 11 11 10 7 4 4 6 7 9 10 10 10 9 9 9 9 9 9 10 10 11 11 11 12 12 12 12 12 11 11 11 10 9 9 8 8 7 7 nan
nan 9 9 9 9 8 8 8 8 8 8 8 8 8 8 9 9 9 10 10 10 10 10 10 11 10 9 7 7 6 6 8 9 10 11 11 11 10 9 9 9 10 10 11 11 10 10 9 8 6 2 1 3 6 7 8 9 9 9 8 8 8 8 8 8 9 9 9 9 10 10 11 11 11 11 11 11 10 10 9 9 9 8 8 8 nan
nan 9 9 10 9 9 8 9 9 9 9 8 8 8 8 7 7 8 9 9 10 9 10 10 9 9 9 6 5 6 6 7 10 11 11 11 11 9 8 8 9 9 10 11 11 10 10 9 7 5 3 4 5 6 7 8 9 9 9 9 8 8 8 9 9 9 9 9 9 9 9 10 10 10 10 10 10 10 10 9 9 9 9 8 9 nan
nan 9 10 10 10 10 10 9 10 10 10 9 9 9 9 8 8 9 9 9 9 9 9 10 9 9 9 8 6 4 5 7 10 12 12 11 11 10 9 9 9 9 10 11 11 10 10 9 9 8 7 7 7 7 8 9 10 10 11 11 10 10 10 10 10 10 9 9 9 9 9 9 9 9 9 9 9 10 9 9 9 9 9 9 9 nan
nan 10 11 10 10 10 10 10 10 10 10 9 10 10 10 9 9 9 9 9 9 9 9 9 9 8 7 7 6 5 5 8 10 11 12 12 11 11 10 9 9 9 10 11 11 10 9 9 10 9 7 6 7 8 10 12 12 13 13 13 13 13 12 12 12 11 11 11 11 10 10 10 9 9 9 9 9 9 9 9 10 10 10 10 10 nan
nan 11 11 10 10 10 11 11 10 9 8 8 9 10 10 9 9 9 9 9 9 9 9 8 7 6 6 7 7 7 9 10 10 10 10 10 10 11 11 9 9 9 11 11 11 10 9 9 9 8 6 7 9 11 13 14 15 15 15 15 15 15 15 15 15 14 14 14 13 12 11 11 10 10 10 10 10 10 10 11 11 11 11 10 10 nan
nan 11 10 10 10 10 10 10 9 8 7 7 8 9 9 8 8 8 8 9 8 8 8 8 8 8 9 10 11 12 13 12 10 9 9 9 10 10 9 8 9 9 10 10 9 9 9 9 9 9 9 11 13 14 15 16 16 16 16 16 16 16 17 17 17 18 18 18 17 17 16 14 14 13 13 13 13 13 14 13 13 12 11 10 9 nan
nan 10 10 9 9 8 8 8 8 8 8 9 10 10 9 8 7 7 8 8 8 9 9 9 10 12 14 14 14 16 16 13 10 8 8 9 9 9 7 8 9 9 9 9 8 8 9 10 10 11 12 13 14 14 14 14 14 14 14 14 14 14 15 16 17 18 19 20 20 20 20 19 19 18 17 17 16 16 16 14 13 12 10 9 9 nan
nan 10 9 9 8 7 7 7 9 9 9 9 9 9 8 8 7 8 9 9 10 10 9 9 11 12 14 15 15 17 16 12 9 7 7 9 9 8 8 9 10 10 9 8 8 9 10 10 11 12 12 12 12 12 11 11 10 10 10 10 10 10 11 11 12 13 14 15 16 17 18 18 19 18 18 18 17 15 14 13 11 10 9 9 9 nan
nan 11 11 11 9 8 8 8 9 9 8 6 4 4 5 7 8 9 10 11 11 10 9 10 10 11 11 12 13 13 12 10 8 7 7 8 9 9 9 10 10 9 8 9 9 10 9 10 11 11 12 12 11 9 8 7 7 6 6 6 7 7 9 9 9 10 10 10 11 11 12 12 13 13 13 13 13 12 11 10 9 9 9 10 12 nan
nan 15 14 13 11 9 9 7 6 6 4 2 1 3 6 9 9 9 9 10 10 10 10 10 10 11 11 11 11 10 9 10 9 9 8 8 9 10 9 9 9 9 10 11 10 10 10 11 11 11 11 11 11 9 7 5 5 4 4 5 6 7 9 10 10 10 10 10 9 9 8 8 9 9 9 10 10 10 9 9 9 9 10 13 17 nan
nan 14 13 11 9 8 7 6 5 5 4 3 3 7 11 12 11 10 9 10 10 10 10 9 9 10 11 10 10 9 9 11 12 12 10 9 10 10 9 8 8 9 11 12 12 13 14 14 12 11 11 11 11 10 9 7 6 6 5 6 7 8 10 11 12 12 11 11 10 10 9 9 8 8 8 9 9 9 9 9 10 12 15 17 17 nan
nan 6 5 5 4 4 4 5 6 6 6 6 8 11 13 13 11 10 10 9 10 11 10 9 9 9 9 9 10 11 12 14 14 13 11 10 10 9 9 8 9 9 11 13 14 17 18 16 13 12 10 10 10 10 11 10 10 10 10 9 10 11 11 11 11 11 12 12 12 11 11 10 9 9 8 8 8 8 8 8 11 14 17 17 14 nan
nan 2 2 2 2 3 5 7 8 9 10 11 12 14 15 13 12 11 10 11 11 11 10 10 10 9 9 10 11 13 14 15 13 12 10 9 9 9 9 8 9 9 11 12 14 15 16 15 13 11 9 9 9 10 10 11 11 12 13 13 14 13 11 10 9 10 11 12 12 12 11 11 10 9 9 9 8 8 8 8 11 13 14 13 12 nan
nan 5 6 6 6 6 8 10 11 12 13 16 17 18 16 14 13 12 12 12 12 11 10 10 10 10 9 9 10 11 13 13 12 10 8 8 9 8 8 9 9 10 10 10 10 11 12 12 11 9 8 9 9 9 9 9 10 11 12 13 14 13 11 9 9 10 11 12 12 12 12 11 11 11 10 10 9 9 9 9 10 10 10 11 11 nan
nan 8 9 9 9 9 10 10 11 12 14 16 18 18 16 14 13 13 13 13 12 11 11 10 10 10 9 8 7 7 9 11 12 10 8 8 9 9 9 10 10 10 10 9 8 8 9 8 7 7 8 9 10 10 10 10 10 10 10 11 11 11 10 10 11 12 13 13 13 14 13 13 13 12 12 11 11 11 11 11 10 8 7 9 10 nan
nan 8 9 9 10 10 9 9 10 11 12 14 14 15 15 14 13 13 12 12 12 12 11 11 10 10 10 9 8 6 7 10 12 11 8 8 9 9 9 9 9 9 10 10 10 9 7 6 5 7 9 10 11 11 11 11 11 10 10 10 10 9 10 11 12 13 13 14 15 17 17 17 16 15 15 14 14 14 14 13 11 7 4 6 9 nan
nan 9 9 10 10 10 10 10 10 11 12 12 12 13 13 13 13 12 12 12 12 12 12 11 11 11 10 11 11 9 8 9 10 10 9 8 9 9 9 9 9 9 10 10 10 10 9 7 6 7 9 10 11 11 11 12 12 11 10 9 9 9 10 11 12 12 12 13 15 16 18 19 19 18 17 16 16 15 15 14 12 9 4 2 4 nan
nan 11 11 11 11 11 11 11 12 12 12 12 12 12 12 12 11 11 11 10 11 10 10 10 10 10 10 10 10 10 8 7 5 6 8 9 9 9 10 10 9 9 9 9 9 10 10 8 7 7 7 9 11 12 13 12 12 11 10 10 9 9 9 10 10 11 12 13 13 13 15 16 17 17 17 16 14 13 13 13 12 11 8 3 1 nan
nan 12 12 12 12 11 11 12 12 13 12 12 12 12 11 11 10 9 9 9 9 9 9 8 8 8 8 8 8 7 6 4 3 3 6 8 9 9 10 9 9 8 9 9 9 9 9 9 9 9 9 10 11 12 12 11 10 10 10 10 10 9 9 9 10 10 11 11 11 11 11 11 12 13 13 13 12 12 12 12 12 12 11 8 4 nan
nan 12 13 13 12 12 12 12 12 12 12 12 12 11 10 9 8 8 7 8 8 9 9 9 9 8 6 5 5 5 4 3 2 3 5 7 8 9 8 8 8 8 9 9 9 8 8 9 10 11 13 12 10 9 8 9 9 9 9 9 9 10 10 11 11 11 11 10 10 9 9 9 10 10 12 13 14 15 16 16 16 15 15 14 11 nan
nan 12 12 12 12 12 12 12 12 11 11 11 11 10 10 9 8 8 8 9 9 9 9 9 10 10 9 6 5 4 3 3 4 6 9 10 10 9 8 8 9 9 9 8 8 8 8 9 10 11 12 11 8 7 7 8 8 9 9 9 10 11 11 12 12 12 11 10 10 9 9 10 10 11 12 14 15 16 17 19 20 19 19 20 19 nan
nan 11 12 12 12 11 11 11 10 10 10 10 9 9 10 11 11 11 10 10 10 10 9 7 8 10 11 10 9 7 7 8 9 10 12 12 11 10 9 8 9 10 10 10 9 9 8 8 8 7 7 8 9 10 10 9 8 8 8 11 13 14 13 12 12 11 11 11 11 11 11 11 11 11 11 11 12 12 13 14 16 18 18 19 22 nan
nan 11 11 12 11 11 11 10 10 10 10 9 10 10 11 12 13 14 13 11 11 11 10 8 7 8 10 10 11 11 11 12 12 11 12 12 11 9 9 9 9 10 11 11 10 10 9 8 7 6 6 7 7 8 8 8 7 6 8 11 12 11 10 9 9 10 11 11 11 11 11 10 10 10 10 10 10 10 10 10 12 13 13 12 14 nan
nan 11 11 11 12 11 11 11 10 9 9 10 10 11 11 12 12 13 14 13 12 12 12 11 10 10 11 13 14 15 15 14 13 12 12 12 11 8 8 9 9 10 10 10 10 10 10 8 8 9 8 7 7 8 8 8 7 7 10 9 7 6 7 9 11 12 12 12 12 11 9 10 10 10 11 10 10 10 9 8 8 9 10 9 9 nan
nan 11 11 11 12 11 11 10 10 10 10 10 10 10 10 10 11 11 12 12 12 12 11 11 11 12 13 15 17 18 18 17 16 15 13 12 11 8 6 7 8 8 10 11 11 11 10 9 9 9 9 9 9 10 9 9 10 11 11 8 7 9 14 16 16 15 13 12 11 10 10 10 11 11 11 11 11 11 10 9 8 7 8 9 9 nan
nan 11 10 10 10 9 10 11 12 12 12 11 11 10 10 10 9 9 10 10 11 11 10 10 10 11 11 12 15 17 19 18 16 15 13 13 11 9 6 6 5 6 7 9 11 12 12 11 10 9 9 9 8 7 8 9 11 12 11 9 9 11 13 14 13 12 11 10 10 10 11 10 10 11 11 11 11 11 12 12 13 12 9 8 9 nan
nan 10 9 10 10 10 11 12 12 12 11 11 11 11 11 11 10 9 9 10 10 10 10 10 10 11 11 12 13 14 17 19 18 15 14 13 11 7 7 7 7 6 5 5 7 10 12 13 12 11 10 10 9 8 8 8 9 10 10 10 10 8 5 5 6 8 9 10 10 10 9 9 10 10 11 11 11 11 11 13 14 15 13 10 10 nan
nan 10 10 11 11 11 11 11 11 11 11 11 11 11 12 12 11 10 9 9 10 10 9 9 10 11 12 12 12 12 13 16 17 16 17 18 15 10 6 7 9 10 9 7 6 5 7 10 11 11 11 10 10 9 8 8 9 9 10 11 11 11 7 5 6 8 9 10 10 10 10 9 9 10 11 11 11 11 11 11 12 12 13 12 11 nan
nan 9 10 10 10 10 11 11 11 11 11 11 11 12 12 12 11 11 10 9 9 10 10 9 9 9 9 10 11 11 11 12 13 13 16 18 17 15 12 10 9 9 10 10 8 7 5 6 7 8 9 10 11 11 9 9 9 9 11 12 12 12 12 11 11 11 10 10 11 11 11 10 10 10 9 10 10 11 12 12 12 11 11 11 11 nan
nan 9 10 10 10 11 12 12 12 12 11 12 12 12 12 11 11 10 11 10 9 10 10 10 9 8 7 8 8 9 9 9 10 11 12 15 16 15 14 14 13 10 9 10 10 9 7 6 5 5 6 8 10 12 11 10 10 9 10 11 11 11 11 12 12 12 11 10 10 10 11 12 11 10 9 9 11 12 12 12 12 12 12 11 11 nan
nan 10 10 10 10 10 11 12 12 11 11 11 11 12 12 11 10 9 10 11 10 10 10 10 10 9 9 9 8 8 8 9 9 10 11 12 13 13 13 13 14 14 12 11 11 10 10 10 8 6 5 5 7 9 10 11 11 10 10 11 11 11 11 10 11 11 12 11 11 11 11 10 10 9 10 9 10 10 10 11 12 12 12 11 11 nan
nan 10 10 10 10 10 11 11 11 11 11 11 11 11 12 12 12 9 9 11 10 10 10 10 9 9 10 10 10 10 10 9 10 10 11 11 11 11 11 11 12 13 14 14 14 15 15 17 16 12 7 4 3 5 8 9 10 10 10 11 11 11 11 11 11 11 12 12 13 13 9 7 8 9 9 9 9 8 9 10 11 12 12 12 12 nan
nan 10 10 10 10 10 10 10 11 11 11 11 11 11 11 12 13 12 10 10 10 10 10 10 10 9 9 10 10 10 10 10 10 10 10 10 11 10 10 10 10 11 12 14 15 16 18 21 24 25 18 9 2 1 5 8 9 10 11 11 11 11 11 11 11 11 10 11 13 14 11 8 8 9 9 9 9 9 10 11 11 12 13 13 13 nan
nan nan nan nan nan nan nan nan nan nan nan nan nan nan nan nan nan nan nan nan nan nan nan nan nan nan nan nan nan nan nan nan nan nan nan nan nan nan nan nan nan nan nan nan nan nan nan nan nan nan nan nan nan nan nan nan nan nan nan nan nan nan nan nan nan nan nan nan nan nan nan nan nan nan nan nan nan nan nan nan nan nan nan nan nan nan
CAPE
2 3 5 6 6 6 5 7 6 6 7 7 9 9 8 5 5 5 3 1 1 3 0 3 3 2 2 nan 0 0 0 1 2 2 4 8 12 12 12 11 11 6 3 3 3 4 5 10 10 13 8 3 3 3 5 6 6 12 16 22 22 34 43 53 53 59 63 66 67 67 54 43 32 32 21 16 14 14 16 19 19 21 24 28 28 30
3 3 5 5 5 6 4 6 5 5 4 3 5 5 6 5 3 3 2 1 1 1 1 4 4 6 8 2 0 0 0 1 3 3 6 11 12 12 11 12 12 8 5 6 6 6 8 8 8 5 2 1 2 2 3 5 5 6 8 13 13 19 27 29 29 33 38 39 36 36 28 22 16 16 12 9 10 10 15 17 17 22 26 29 29 35
2 2 3 5 5 3 2 5 5 5 5 3 4 4 5 5 4 4 1 2 2 3 1 2 2 5 7 2 0 0 1 1 5 5 8 11 10 10 7 6 6 5 6 7 7 7 1 0 0 0 1 1 2 2 2 3 3 4 5 9 9 11 15 15 15 16 19 21 20 20 14 13 7 7 7 9 11 11 14 16 16 16 23 26 26 34
nan 0 1 4 4 3 2 3 5 5 3 3 4 4 4 4 3 3 3 1 1 1 0 0 0 1 4 4 0 0 2 4 7 7 9 7 5 5 4 3 3 5 6 5 5 1 nan nan nan 0 0 1 1 1 2 3 3 5 7 9 9 11 13 14 14 16 17 16 15 15 11 8 6 6 6 8 9 9 13 13 13 13 16 22 22 29
0 1 1 1 1 3 3 3 2 2 2 3 3 3 4 3 4 4 5 2 2 1 0 nan nan 0 0 3 2 2 2 5 5 5 5 3 2 2 2 1 1 2 1 0 0 nan nan nan nan nan 0 0 1 1 2 5 5 7 10 14 14 17 18 19 19 20 20 17 14 14 8 6 6 6 7 7 9 9 11 13 13 14 16 19 19 24
0 1 1 1 1 1 3 4 2 2 1 1 1 1 0 1 3 3 3 3 3 2 0 0 0 0 0 1 nan nan nan 0 0 0 nan nan 0 0 0 nan nan nan nan nan nan nan nan nan nan nan nan 0 0 0 1 3 3 5 9 15 15 18 21 20 20 17 17 16 13 13 10 7 7 7 6 8 9 9 13 16 16 19 23 22 22 25
0 1 1 1 1 2 4 3 1 1 1 0 0 0 nan 0 0 0 1 1 1 1 0 nan nan nan nan nan nan nan nan nan nan nan nan nan nan nan nan nan nan nan nan nan nan nan nan nan nan nan nan nan nan nan nan nan nan 0 4 7 7 11 16 16 16 16 15 11 10 10 10 9 9 9 9 9 12 12 16 20 20 24 26 28 28 29
0 0 0 1 1 1 3 2 0 0 0 0 nan nan nan 0 0 0 0 nan nan nan nan nan nan nan nan nan nan nan nan nan nan nan nan nan nan nan nan nan nan nan nan nan nan nan nan nan nan nan nan nan nan nan nan nan nan nan nan nan nan nan 3 6 6 10 14 16 14 14 13 12 14 14 14 14 12 12 15 18 18 23 29 33 33 37
0 0 0 0 0 0 0 1 0 0 nan 0 nan nan nan nan nan nan nan nan nan nan nan nan nan nan nan nan nan nan nan nan nan nan nan nan nan nan nan nan nan nan nan nan nan nan nan nan nan nan nan nan nan nan nan nan nan nan nan nan nan nan 0 4 4 9 14 15 17 17 16 17 16 16 15 14 10 10 11 15 15 18 26 32 32 37
1 0 0 1 1 4 1 0 0 0 0 nan nan nan nan nan nan nan nan nan nan nan nan nan nan nan nan nan nan nan nan nan nan nan nan nan nan nan nan nan nan nan nan nan nan nan nan nan nan nan nan nan nan nan nan nan nan nan nan nan nan nan 0 2 2 6 11 15 17 17 18 19 18 18 18 13 10 10 11 12 12 15 20 27 27 33
1 1 1 0 0 1 0 nan nan nan nan nan nan nan nan nan nan nan nan nan nan nan nan nan nan nan nan nan nan nan nan nan nan nan nan nan nan nan nan nan nan nan nan nan nan nan nan nan nan nan nan nan nan nan nan nan nan nan nan nan nan nan nan 1 1 3 6 10 14 14 17 17 17 17 14 11 11 11 11 14 14 15 20 27 27 32
0 0 nan nan nan nan nan nan nan nan nan nan nan nan nan nan nan nan nan nan nan nan nan nan nan nan nan nan nan nan nan nan nan nan nan nan nan nan nan nan nan nan nan nan nan nan nan nan nan nan nan nan nan nan nan nan nan nan nan nan nan nan nan 0 0 2 5 6 10 10 11 12 13 13 12 11 12 12 14 17 17 18 23 29 29 34
nan nan nan nan nan nan nan nan nan nan nan nan nan nan nan nan nan nan nan nan nan nan nan nan nan nan nan nan nan nan nan nan nan nan nan nan nan nan nan nan nan nan nan nan nan nan nan nan nan nan nan nan nan nan nan nan nan nan nan nan nan nan nan 0 0 1 3 4 5 5 7 8 8 8 9 13 14 14 18 22 22 23 25 30 30 36
nan nan nan nan nan nan nan nan nan nan nan nan nan nan nan nan nan nan nan nan nan nan nan nan nan nan nan nan nan nan nan nan nan nan nan nan nan nan nan nan nan nan nan nan nan nan nan nan nan nan nan nan nan nan nan nan nan nan nan nan nan nan 0 1 1 3 5 6 7 7 8 10 10 10 12 15 19 19 22 24 24 25 28 29 29 31
nan nan nan nan nan nan nan nan nan nan nan nan nan nan nan nan nan nan nan nan nan nan nan nan nan nan nan nan nan nan nan nan nan nan nan nan nan nan nan nan nan nan nan nan nan nan nan nan nan nan nan nan nan nan nan nan nan nan nan 0 0 1 4 6 6 9 11 13 13 13 14 15 15 15 16 19 22 22 22 25 25 24 26 28 28 27
nan nan nan nan nan nan nan nan nan nan nan nan nan nan nan nan nan nan nan nan nan nan nan nan nan nan nan nan nan nan nan nan nan nan nan nan nan nan nan nan nan nan nan nan nan nan nan nan nan nan nan nan nan nan nan nan nan 0 1 3 3 5 7 10 10 12 15 16 18 18 19 19 20 20 20 22 24 24 24 24 24 25 24 24 24 24
nan nan nan nan nan nan nan nan nan nan nan nan nan nan nan nan nan nan nan nan nan nan nan nan nan nan nan nan nan nan nan nan nan nan nan nan nan nan nan nan nan nan nan nan nan nan nan nan nan nan nan nan nan nan nan 1 1 2 4 6 6 7 8 11 11 13 15 16 19 19 21 23 22 22 24 26 24 24 24 24 24 25 24 24 24 23
nan nan nan nan nan nan nan nan nan nan nan nan nan nan nan nan nan nan nan nan nan nan nan nan nan nan nan nan nan nan nan nan nan nan nan nan nan nan nan nan nan nan nan nan nan nan nan nan nan nan nan nan nan nan nan 0 0 2 4 5 5 6 8 9 9 11 14 16 19 19 20 25 24 24 25 25 24 24 23 23 23 26 24 25 25 23
nan nan nan nan nan nan nan nan nan nan nan nan nan nan nan nan nan nan nan nan nan nan nan nan nan nan nan nan nan nan nan nan nan nan nan nan nan nan nan nan nan nan nan nan nan nan nan nan nan nan nan nan nan nan nan 0 0 1 3 4 4 5 5 7 7 9 10 13 16 16 18 22 24 24 27 26 26 26 27 27 27 27 25 25 25 25
nan nan nan nan nan nan nan nan nan nan nan nan nan nan nan nan nan nan nan nan nan nan nan nan nan nan nan nan nan nan nan nan nan nan nan nan nan nan nan nan nan nan nan nan nan nan nan nan nan nan nan nan nan nan nan 0 0 1 2 3 3 4 4 5 5 6 8 9 13 13 16 19 23 23 24 24 26 26 27 26 26 27 26 25 25 24
nan nan nan nan nan nan nan nan nan nan nan nan nan nan nan nan nan nan nan nan nan nan nan nan nan nan nan nan nan nan nan nan nan nan nan nan nan nan nan nan nan nan nan nan nan nan nan nan nan nan nan nan nan nan nan nan nan 0 1 1 1 2 3 4 4 5 6 8 10 10 13 17 19 19 20 21 23 23 24 25 25 25 25 25 25 22
nan nan nan nan nan nan nan nan 1 1 1 0 nan nan nan nan nan nan nan nan nan nan nan nan nan nan nan nan nan nan nan nan nan nan nan nan nan nan nan nan nan nan nan nan nan nan nan nan nan nan nan nan nan nan nan nan nan nan 0 0 0 1 2 2 2 3 4 7 8 8 9 12 15 15 17 18 20 20 23 21 21 24 24 23 23 23
nan nan nan nan nan nan nan 1 3 3 1 0 0 0 0 nan nan nan nan nan nan nan nan nan nan nan nan nan nan nan nan nan nan nan nan nan nan nan nan nan nan nan nan nan nan nan nan nan nan nan nan nan nan nan nan nan nan nan 0 1 1 2 4 5 5 6 6 7 7 7 9 11 14 14 16 16 19 19 22 23 23 22 24 22 22 21
nan nan nan nan nan nan 1 1 3 3 5 4 2 2 5 3 1 1 0 0 0 0 nan nan nan nan nan nan nan nan nan nan nan nan nan nan nan nan nan nan nan nan nan nan nan nan nan nan nan nan nan nan nan nan nan nan nan 0 1 3 3 4 6 8 8 9 10 9 12 12 13 15 16 16 16 17 20 20 22 22 22 20 20 20 20 19
nan nan nan nan nan 1 nan 0 4 4 6 7 8 8 10 13 9 9 8 5 5 3 1 nan nan nan nan nan nan nan nan nan nan nan nan nan nan nan nan nan nan nan nan nan nan nan nan nan nan nan nan nan nan nan nan nan nan 0 2 3 3 4 4 5 5 6 8 10 12 12 12 15 15 15 17 18 19 19 19 17 17 18 18 17 17 15
nan nan nan nan nan 0 4 13 15 15 3 5 7 7 10 12 9 9 8 5 5 2 0 nan nan nan nan nan nan nan nan nan nan nan nan nan nan nan nan nan nan nan nan nan nan nan nan nan nan nan nan nan nan nan nan nan nan 0 1 1 1 1 1 1 1 3 5 5 6 6 8 10 11 11 13 14 14 14 13 14 14 14 15 14 14 13
4 3 3 3 3 6 11 11 10 10 9 13 14 14 17 14 9 9 5 0 0 nan nan nan nan nan nan nan nan nan nan nan nan nan nan nan nan nan nan nan nan nan nan nan nan nan nan nan nan nan nan nan nan nan nan nan nan nan nan nan nan nan nan 0 0 0 1 3 5 5 5 5 6 6 8 9 11 11 12 13 13 13 12 12 12 11
8 9 9 9 9 6 4 3 3 3 5 8 12 12 12 10 6 6 1 nan nan nan nan nan nan nan nan nan nan nan nan nan nan nan nan nan nan nan nan nan nan nan nan nan nan nan nan nan nan nan nan nan nan nan nan nan nan nan nan nan nan nan nan nan nan nan nan 0 2 2 2 4 5 5 6 7 8 8 9 10 10 9 9 8 8 5
3 2 1 0 0 nan nan nan nan nan nan 0 1 1 4 1 1 1 nan nan nan nan nan nan nan nan nan nan nan nan nan nan nan nan nan nan nan nan nan nan nan nan nan nan nan nan nan nan nan nan nan nan nan nan nan nan nan nan nan nan nan nan nan nan nan nan nan nan 0 0 1 2 3 3 4 6 7 7 7 8 8 8 6 3 3 1
1 nan nan nan nan nan nan nan nan nan nan nan nan nan nan nan nan nan nan nan nan nan nan nan nan nan nan nan nan nan nan nan nan nan nan nan nan nan nan nan nan nan nan nan nan nan nan nan nan nan nan nan nan nan nan nan nan nan nan nan nan nan nan nan nan nan nan nan nan nan nan 0 1 1 2 3 5 5 4 5 5 5 2 0 0 0
4 4 2 nan nan nan nan nan nan nan nan nan nan nan nan nan nan nan nan nan nan nan nan nan nan nan nan nan nan nan nan nan nan nan nan nan nan nan nan nan nan nan nan nan nan nan nan nan nan nan nan nan nan nan nan nan nan nan nan nan nan nan nan nan nan nan nan nan nan nan nan nan 0 0 0 0 1 1 1 2 2 2 0 nan nan 0
nan nan nan nan nan nan nan nan nan nan nan nan nan nan nan nan nan nan nan nan nan nan nan nan nan nan nan nan nan nan nan nan nan nan nan nan nan nan nan nan nan 0 0 1 1 nan nan nan nan nan nan nan nan nan nan nan nan nan nan nan nan nan nan nan nan nan nan nan nan nan nan nan nan nan nan nan nan nan 0 0 0 0 nan nan nan nan
nan nan nan nan nan nan nan nan nan nan nan nan nan nan nan nan nan nan nan nan nan nan nan nan nan nan nan nan nan nan nan nan 0 0 0 nan 0 0 0 nan nan nan 0 0 0 0 nan nan nan nan nan nan nan nan nan nan nan nan nan nan nan nan nan nan nan nan nan nan nan nan nan nan nan nan nan nan nan nan 0 0 0 1 1 nan nan nan
nan nan nan nan nan nan nan nan nan nan nan nan nan nan nan nan nan nan nan nan nan nan nan 0 0 nan nan nan nan nan nan nan 3 3 2 1 1 1 0 0 0 nan 0 nan nan nan nan nan nan nan nan nan nan nan nan nan nan nan nan nan nan nan nan nan nan nan nan nan nan nan nan nan nan nan nan nan nan nan nan 0 0 1 1 0 0 0
nan nan nan nan nan nan nan nan nan nan nan nan nan nan nan nan nan nan nan nan nan nan nan 0 0 0 nan nan nan nan nan nan nan nan nan 0 1 1 1 0 0 nan 0 0 0 0 nan nan nan nan nan nan nan nan nan nan nan nan nan nan nan nan nan nan nan nan nan nan nan nan nan nan nan nan nan nan nan nan nan 0 0 1 2 3 3 2
nan nan nan nan nan nan nan nan nan nan nan nan nan nan nan nan nan nan nan nan nan 0 1 1 1 1 1 0 nan nan nan nan nan nan nan nan 1 1 1 nan nan 0 0 0 0 0 0 0 0 0 0 nan nan nan nan nan nan nan nan nan nan nan nan nan nan nan nan nan nan nan nan nan nan nan nan nan nan nan nan 0 0 1 2 4 4 5
nan nan nan nan nan nan nan nan nan nan nan nan nan nan nan nan nan nan nan 1 1 0 1 3 3 2 3 1 1 1 nan nan nan nan nan 1 0 0 1 0 0 0 0 1 1 1 0 0 0 nan nan nan nan nan nan nan nan nan nan nan nan nan nan nan nan nan nan nan nan nan nan nan nan nan nan nan nan nan 0 1 1 1 2 3 3 5
nan nan nan nan nan nan nan nan nan nan nan nan nan nan nan nan nan nan nan 1 1 0 0 0 0 nan 2 3 3 3 1 0 1 1 1 1 0 0 1 0 0 0 1 1 1 1 1 0 0 0 nan nan nan nan nan nan nan nan nan nan nan nan nan nan nan nan nan nan nan nan nan nan nan nan nan nan nan nan nan nan nan nan 0 1 1 2
nan nan nan nan nan nan nan nan nan nan nan nan nan nan nan nan nan nan nan 0 0 nan nan 0 0 nan 1 0 1 1 1 2 0 0 1 1 2 2 1 1 1 0 1 2 2 1 1 0 0 nan nan nan nan nan nan nan nan nan nan nan nan nan nan nan nan 0 0 0 0 0 nan nan nan nan nan nan nan nan nan nan nan nan nan nan nan 0
nan nan nan nan nan nan nan nan nan nan nan nan nan nan nan nan nan nan nan nan nan nan nan 0 0 0 0 0 nan nan 1 2 4 4 2 nan 2 2 2 1 1 1 1 3 3 2 2 1 1 0 0 0 0 0 0 nan nan nan 0 0 0 nan nan nan nan nan nan nan 0 0 nan nan nan nan nan nan nan nan nan nan nan nan nan nan nan nan
nan nan nan nan nan nan nan nan nan nan nan nan nan nan nan nan nan nan nan nan nan nan nan 0 0 0 0 0 nan nan nan 1 2 2 3 nan 1 1 3 2 2 1 1 1 1 2 2 2 2 2 2 2 2 2 2 0 0 1 2 0 0 nan 0 0 0 nan nan nan 0 0 0 nan nan nan nan nan nan nan nan nan nan nan nan nan nan nan
nan nan nan nan nan nan nan nan nan nan nan nan nan nan nan nan nan nan nan nan nan nan nan nan nan nan nan nan nan nan 0 1 2 2 2 nan nan nan 2 3 3 2 2 2 2 2 2 2 2 3 2 2 2 2 1 0 0 1 1 0 0 0 0 0 0 nan 0 0 nan nan 0 nan nan nan nan nan nan nan nan nan nan nan nan nan nan nan
nan nan nan nan nan nan nan nan nan nan nan nan nan nan nan nan nan nan nan nan nan nan nan nan nan nan nan nan nan nan 0 2 1 1 2 nan nan nan 1 3 3 3 3 2 2 3 2 4 4 3 2 3 2 2 1 1 1 0 0 1 1 1 1 nan nan nan 0 0 nan nan nan nan nan nan nan nan nan nan nan nan nan nan nan nan nan nan
nan nan nan nan nan nan nan nan nan nan nan nan nan nan nan nan nan nan nan nan nan nan nan nan nan nan nan nan nan nan nan 1 1 1 1 3 nan nan 1 3 3 4 5 3 3 3 3 3 3 2 3 4 3 3 2 2 2 1 0 1 1 1 1 0 0 0 0 0 0 0 0 0 nan nan nan nan nan nan nan nan nan nan nan nan nan nan
nan nan nan nan nan nan nan nan nan nan nan nan nan nan nan nan nan nan nan nan nan nan nan nan nan nan nan nan nan nan nan nan 1 1 2 4 5 5 5 5 5 4 5 5 5 4 3 3 3 2 3 4 3 3 2 1 1 1 1 1 1 2 1 1 1 1 1 1 0 0 0 1 1 1 0 nan nan nan nan nan nan nan nan nan nan nan
nan nan nan nan nan nan nan nan nan nan nan nan nan nan nan nan nan nan nan nan nan nan nan nan nan nan nan nan nan nan nan nan nan nan 0 2 5 5 6 7 7 5 6 6 6 5 4 3 3 3 5 4 2 2 1 1 1 1 0 1 1 1 1 1 1 1 1 1 1 1 1 2 1 1 0 0 nan nan nan nan nan nan nan nan nan nan
nan nan nan nan nan nan nan nan nan nan nan nan nan nan nan nan nan nan nan nan nan nan nan nan nan nan nan nan nan nan nan nan nan nan 0 1 3 3 4 7 7 10 8 7 7 7 6 7 7 6 4 3 2 2 1 1 1 1 1 0 0 0 0 0 0 1 1 1 1 1 3 4 2 2 1 0 nan nan nan nan nan nan nan nan nan nan
nan nan nan nan nan nan nan nan nan nan nan nan nan nan nan nan nan nan nan nan nan nan 0 0 0 0 nan nan nan nan nan nan nan nan nan 1 4 4 4 5 5 6 8 9 9 8 7 9 9 9 6 3 2 2 0 0 0 1 0 0 0 1 1 0 0 0 1 2 4 4 6 4 3 3 1 1 0 0 nan nan nan nan 0 0 0 nan
nan nan nan nan nan nan nan nan nan nan nan nan nan nan nan nan 1 1 nan nan nan 0 0 0 0 nan nan nan nan nan nan nan nan nan nan 1 2 2 2 3 3 4 5 7 7 7 8 9 9 7 4 3 1 1 1 0 0 0 0 1 1 1 1 0 0 0 1 4 7 7 8 4 4 4 3 2 1 1 0 0 0 nan 0 0 0 nan
nan nan nan nan nan nan nan nan nan nan nan nan nan nan nan nan nan nan nan 0 0 0 0 nan nan nan nan nan nan nan nan nan nan nan nan 0 2 2 3 3 3 3 2 3 3 3 3 6 6 7 9 4 2 2 1 1 1 0 1 1 1 1 0 0 0 1 1 2 8 8 12 7 5 5 4 3 2 2 1 0 0 0 nan 0 0 nan
nan nan nan nan nan nan nan nan nan nan nan nan nan nan nan nan nan nan nan nan nan 0 nan nan nan nan nan nan nan nan nan nan nan nan nan 0 1 1 2 2 2 2 2 1 1 1 2 1 1 1 5 8 3 3 1 1 1 1 2 1 1 1 1 1 1 1 2 2 6 6 11 9 6 6 4 4 3 3 1 0 0 0 nan nan nan 0